| time (UTC) | temp F | wind direction | speed knots | gust knots | rain 1hr in | rain 24hr in | rain mn in | humidity % | barometer mb |
| 20260504050617 | 53 | 149 | 2.6 | 2.6 | 0.00 | 0.00 | 0.00 | 74 | 1017.9 |
| 20260504050114 | 53 | 208 | 2.6 | 2.6 | 0.00 | 0.00 | 0.00 | 74 | 1018.0 |
| 20260504045611 | 53 | 150 | 1.7 | 2.6 | 0.00 | 0.00 | 0.00 | 74 | 1018.0 |
| 20260504045106 | 53 | 156 | 2.6 | 3.5 | 0.00 | 0.00 | 0.00 | 75 | 1017.8 |
| 20260504044604 | 53 | 213 | 0.9 | 1.7 | 0.00 | 0.00 | 0.00 | 72 | 1018.0 |
| 20260504044100 | 53 | 207 | 1.7 | 1.7 | 0.00 | 0.00 | 0.00 | 72 | 1017.9 |
| 20260504043558 | 53 | 175 | 1.7 | 1.7 | 0.00 | 0.00 | 0.00 | 72 | 1017.9 |
| 20260504043055 | 53 | 177 | 1.7 | 1.7 | 0.00 | 0.00 | 0.00 | 71 | 1017.9 |
| 20260504042552 | 53 | 205 | 1.7 | 1.7 | 0.00 | 0.00 | 0.00 | 70 | 1018.0 |
| 20260504042049 | 53 | 204 | 1.7 | 1.7 | 0.00 | 0.00 | 0.00 | 69 | 1017.9 |
| 20260504041545 | 53 | 196 | 2.6 | 2.6 | 0.00 | 0.00 | 0.00 | 69 | 1017.9 |
| 20260504041041 | 53 | 169 | 1.7 | 2.6 | 0.00 | 0.00 | 0.00 | 68 | 1018.0 |
| 20260504040539 | 53 | 212 | 1.7 | 1.7 | 0.00 | 0.00 | 0.00 | 67 | 1017.9 |
| 20260504040035 | 53 | 211 | 1.7 | 2.6 | 0.00 | 0.00 | 0.00 | 68 | 1018.0 |
| 20260504035532 | 52 | 229 | 1.7 | 1.7 | 0.00 | 0.00 | 0.00 | 71 | 1017.8 |
| 20260504035028 | 48 | 302 | 0.0 | 0.0 | 0.00 | 0.00 | 0.00 | 73 | 1018.0 |
| 20260504034526 | 48 | 194 | 0.9 | 0.9 | 0.00 | 0.00 | 0.00 | 73 | 1017.8 |
| 20260504034023 | 47 | 315 | 0.0 | 0.0 | 0.00 | 0.00 | 0.00 | 75 | 1017.7 |
| 20260504033521 | 47 | 315 | 0.0 | 0.0 | 0.00 | 0.00 | 0.00 | 75 | 1017.5 |
| 20260504033018 | 47 | 315 | 0.0 | 0.0 | 0.00 | 0.00 | 0.00 | 75 | 1017.5 |
| 20260504032515 | 47 | 315 | 0.0 | 0.0 | 0.00 | 0.00 | 0.00 | 76 | 1017.6 |
| 20260504032012 | 47 | 315 | 0.0 | 0.0 | 0.00 | 0.00 | 0.00 | 78 | 1017.8 |
| 20260504031509 | 47 | 315 | 0.0 | 0.0 | 0.00 | 0.00 | 0.00 | 78 | 1017.5 |
| 20260504031005 | 47 | 315 | 0.0 | 0.0 | 0.00 | 0.00 | 0.00 | 78 | 1017.6 |
| 20260504030502 | 47 | 315 | 0.0 | 0.0 | 0.00 | 0.00 | 0.00 | 77 | 1017.5 |
| 20260504025958 | 48 | 315 | 0.0 | 0.0 | 0.00 | 0.00 | 0.00 | 80 | 1017.5 |
| 20260504025455 | 48 | 315 | 0.0 | 0.0 | 0.00 | 0.00 | 0.00 | 80 | 1017.6 |
| 20260504024952 | 48 | 315 | 0.0 | 0.0 | 0.00 | 0.00 | 0.00 | 78 | 1017.7 |
| 20260504024449 | 47 | 315 | 0.0 | 0.0 | 0.00 | 0.00 | 0.00 | 75 | 1017.6 |
| 20260504023946 | 47 | 315 | 0.0 | 0.0 | 0.00 | 0.00 | 0.00 | 74 | 1017.5 |
| 20260504023443 | 48 | 315 | 0.0 | 0.0 | 0.00 | 0.00 | 0.00 | 77 | 1017.6 |
| 20260504022938 | 49 | 315 | 0.0 | 0.0 | 0.00 | 0.00 | 0.00 | 80 | 1017.5 |
| 20260504022434 | 49 | 315 | 0.0 | 0.0 | 0.00 | 0.00 | 0.00 | 80 | 1017.7 |
| 20260504021931 | 49 | 315 | 0.0 | 0.0 | 0.00 | 0.00 | 0.00 | 79 | 1017.6 |
| 20260504021428 | 50 | 315 | 0.0 | 0.0 | 0.00 | 0.00 | 0.00 | 78 | 1017.6 |
| 20260504020926 | 50 | 315 | 0.0 | 0.0 | 0.00 | 0.00 | 0.00 | 77 | 1017.8 |
| 20260504020422 | 50 | 315 | 0.0 | 0.0 | 0.00 | 0.00 | 0.00 | 76 | 1017.6 |
| 20260504015919 | 50 | 315 | 0.0 | 0.0 | 0.00 | 0.00 | 0.00 | 75 | 1017.6 |
| 20260504015415 | 50 | 315 | 0.0 | 0.0 | 0.00 | 0.00 | 0.00 | 73 | 1017.6 |
| 20260504014911 | 50 | 315 | 0.0 | 0.0 | 0.00 | 0.00 | 0.00 | 71 | 1017.4 |
| 20260504014407 | 50 | 315 | 0.0 | 0.0 | 0.00 | 0.00 | 0.00 | 68 | 1017.5 |
| 20260504013904 | 50 | 315 | 0.0 | 0.0 | 0.00 | 0.00 | 0.00 | 68 | 1017.4 |
| 20260504013403 | 50 | 315 | 0.0 | 0.0 | 0.00 | 0.00 | 0.00 | 67 | 1017.4 |
| 20260504012859 | 50 | 315 | 0.0 | 0.0 | 0.00 | 0.00 | 0.00 | 66 | 1017.6 |
| 20260504012357 | 50 | 315 | 0.0 | 0.0 | 0.00 | 0.00 | 0.00 | 64 | 1017.4 |
| 20260504011854 | 50 | 315 | 0.0 | 0.9 | 0.00 | 0.00 | 0.00 | 63 | 1017.1 |
| 20260504011350 | 51 | 315 | 0.0 | 0.9 | 0.00 | 0.00 | 0.00 | 61 | 1017.3 |
| 20260504010846 | 51 | 315 | 0.9 | 0.9 | 0.00 | 0.00 | 0.00 | 60 | 1017.1 |
| 20260504010342 | 51 | 315 | 0.9 | 0.9 | 0.00 | 0.00 | 0.00 | 57 | 1017.1 |
| 20260504005839 | 51 | 315 | 0.0 | 0.0 | 0.00 | 0.00 | 0.00 | 58 | 1017.0 |
| 20260504005336 | 52 | 315 | 0.0 | 0.0 | 0.00 | 0.00 | 0.00 | 59 | 1017.1 |
| 20260504004833 | 52 | 315 | 0.0 | 0.0 | 0.00 | 0.00 | 0.00 | 58 | 1016.9 |
| 20260504004331 | 52 | 315 | 0.0 | 0.0 | 0.00 | 0.00 | 0.00 | 56 | 1016.9 |
| 20260504003827 | 53 | 315 | 0.0 | 0.9 | 0.00 | 0.00 | 0.00 | 55 | 1016.9 |
| 20260504003324 | 53 | 315 | 0.9 | 0.9 | 0.00 | 0.00 | 0.00 | 54 | 1016.9 |
| 20260504002821 | 54 | 315 | 0.0 | 0.0 | 0.00 | 0.00 | 0.00 | 50 | 1016.6 |
| 20260504002317 | 55 | 315 | 0.0 | 0.0 | 0.00 | 0.00 | 0.00 | 48 | 1016.7 |
| 20260504001815 | 55 | 315 | 0.0 | 0.0 | 0.00 | 0.00 | 0.00 | 48 | 1016.5 |
| 20260504001312 | 55 | 315 | 0.0 | 0.9 | 0.00 | 0.00 | 0.00 | 46 | 1016.6 |
| 20260504000809 | 55 | 315 | 0.0 | 0.0 | 0.00 | 0.00 | 0.00 | 48 | 1016.4 |
| 20260504000306 | 55 | 315 | 0.0 | 0.0 | 0.00 | 0.00 | 0.00 | 48 | 1016.5 |
| 20260503235804 | 55 | 315 | 0.0 | 0.0 | 0.00 | 0.00 | 0.00 | 47 | 1016.4 |
| 20260503235301 | 56 | 315 | 0.0 | 0.0 | 0.00 | 0.00 | 0.00 | 50 | 1016.3 |
| 20260503234759 | 56 | 315 | 0.0 | 0.0 | 0.00 | 0.00 | 0.00 | 48 | 1016.3 |
| 20260503234256 | 56 | 303 | 0.0 | 0.0 | 0.00 | 0.00 | 0.00 | 47 | 1016.5 |
| 20260503233754 | 57 | 303 | 0.0 | 0.0 | 0.00 | 0.00 | 0.00 | 47 | 1016.3 |
| 20260503233249 | 57 | 303 | 0.0 | 0.0 | 0.00 | 0.00 | 0.00 | 45 | 1016.2 |
| 20260503232746 | 58 | 302 | 0.0 | 0.0 | 0.00 | 0.00 | 0.00 | 44 | 1016.3 |
| 20260503232243 | 58 | 302 | 0.0 | 0.0 | 0.00 | 0.00 | 0.00 | 42 | 1016.2 |
| 20260503231741 | 59 | 301 | 0.0 | 0.0 | 0.00 | 0.00 | 0.00 | 41 | 1016.2 |
| 20260503231238 | 59 | 297 | 0.0 | 0.0 | 0.00 | 0.00 | 0.00 | 39 | 1016.0 |
| 20260503230734 | 59 | 332 | 0.0 | 0.0 | 0.00 | 0.00 | 0.00 | 40 | 1016.1 |
| 20260503230232 | 60 | 308 | 0.0 | 0.0 | 0.00 | 0.00 | 0.00 | 40 | 1016.2 |
| 20260503225729 | 60 | 343 | 0.0 | 0.0 | 0.00 | 0.00 | 0.00 | 38 | 1016.3 |
| 20260503225229 | 60 | 316 | 0.0 | 0.9 | 0.00 | 0.00 | 0.00 | 38 | 1016.2 |
| 20260503224726 | 60 | 298 | 0.0 | 0.0 | 0.00 | 0.00 | 0.00 | 37 | 1016.2 |
| 20260503224224 | 60 | 307 | 0.0 | 0.0 | 0.00 | 0.00 | 0.00 | 36 | 1016.2 |
| 20260503223721 | 61 | 351 | 0.0 | 0.9 | 0.00 | 0.00 | 0.00 | 35 | 1016.4 |
| 20260503223219 | 61 | 346 | 0.0 | 0.0 | 0.00 | 0.00 | 0.00 | 37 | 1016.1 |
| 20260503222715 | 61 | 3 | 0.0 | 0.9 | 0.00 | 0.00 | 0.00 | 39 | 1016.1 |
| 20260503222213 | 61 | 315 | 0.0 | 0.0 | 0.00 | 0.00 | 0.00 | 36 | 1016.2 |
| 20260503221711 | 61 | 358 | 0.0 | 0.9 | 0.00 | 0.00 | 0.00 | 36 | 1016.3 |
| 20260503221209 | 62 | 56 | 0.9 | 0.9 | 0.00 | 0.00 | 0.00 | 36 | 1016.2 |
| 20260503220705 | 62 | 63 | 0.9 | 0.9 | 0.00 | 0.00 | 0.00 | 35 | 1016.2 |
| 20260503220201 | 62 | 338 | 0.0 | 0.9 | 0.00 | 0.00 | 0.00 | 36 | 1016.2 |
| 20260503215658 | 62 | 351 | 0.9 | 1.7 | 0.00 | 0.00 | 0.00 | 34 | 1016.1 |
| 20260503215155 | 62 | 22 | 0.9 | 0.9 | 0.00 | 0.00 | 0.00 | 36 | 1015.9 |
| 20260503214649 | 62 | 340 | 0.9 | 0.9 | 0.00 | 0.00 | 0.00 | 37 | 1016.0 |
| 20260503214144 | 62 | 295 | 0.0 | 0.9 | 0.00 | 0.00 | 0.00 | 33 | 1016.1 |
| 20260503213643 | 62 | 319 | 0.0 | 0.0 | 0.00 | 0.00 | 0.00 | 36 | 1016.0 |
| 20260503213139 | 62 | 339 | 1.7 | 1.7 | 0.00 | 0.00 | 0.00 | 34 | 1016.0 |
| 20260503212637 | 62 | 53 | 0.9 | 0.9 | 0.00 | 0.00 | 0.00 | 37 | 1016.1 |
| 20260503212134 | 63 | 351 | 0.9 | 1.7 | 0.00 | 0.00 | 0.00 | 33 | 1016.2 |
| 20260503211632 | 63 | 347 | 1.7 | 1.7 | 0.00 | 0.00 | 0.00 | 34 | 1016.3 |
| 20260503211127 | 63 | 340 | 0.0 | 0.9 | 0.00 | 0.00 | 0.00 | 34 | 1015.9 |
| 20260503210624 | 63 | 336 | 0.0 | 0.9 | 0.00 | 0.00 | 0.00 | 35 | 1015.9 |
| 20260503210120 | 62 | 291 | 0.9 | 0.9 | 0.00 | 0.00 | 0.00 | 34 | 1015.9 |
| 20260503205616 | 63 | 11 | 0.9 | 1.7 | 0.00 | 0.00 | 0.00 | 34 | 1016.0 |
| 20260503205113 | 63 | 300 | 0.9 | 1.7 | 0.00 | 0.00 | 0.00 | 34 | 1016.0 |
| 20260503204609 | 62 | 348 | 1.7 | 1.7 | 0.00 | 0.00 | 0.00 | 34 | 1016.0 |
| 20260503204107 | 63 | 316 | 3.5 | 3.5 | 0.00 | 0.00 | 0.00 | 32 | 1016.0 |
| 20260503203604 | 63 | 342 | 0.0 | 0.0 | 0.00 | 0.00 | 0.00 | 38 | 1015.9 |
| 20260503203101 | 63 | 288 | 0.9 | 0.9 | 0.00 | 0.00 | 0.00 | 34 | 1015.8 |
| 20260503202559 | 63 | 323 | 1.7 | 3.5 | 0.00 | 0.00 | 0.00 | 35 | 1015.8 |
| 20260503202056 | 64 | 226 | 1.7 | 2.6 | 0.00 | 0.00 | 0.00 | 32 | 1016.0 |
| 20260503201554 | 64 | 320 | 0.9 | 1.7 | 0.00 | 0.00 | 0.00 | 33 | 1016.2 |
| 20260503201051 | 63 | 340 | 3.5 | 3.5 | 0.00 | 0.00 | 0.00 | 33 | 1016.2 |
| 20260503200547 | 62 | 319 | 0.9 | 0.9 | 0.00 | 0.00 | 0.00 | 36 | 1016.3 |
| 20260503200044 | 63 | 20 | 2.6 | 2.6 | 0.00 | 0.00 | 0.00 | 34 | 1016.2 |
| 20260503195541 | 63 | 10 | 0.9 | 0.9 | 0.00 | 0.00 | 0.00 | 36 | 1016.2 |
| 20260503195038 | 63 | 4 | 1.7 | 1.7 | 0.00 | 0.00 | 0.00 | 33 | 1016.4 |
| 20260503194535 | 64 | 317 | 0.9 | 1.7 | 0.00 | 0.00 | 0.00 | 34 | 1016.4 |
| 20260503194035 | 62 | 11 | 1.7 | 3.5 | 0.00 | 0.00 | 0.00 | 35 | 1016.6 |
| 20260503193532 | 62 | 1 | 1.7 | 1.7 | 0.00 | 0.00 | 0.00 | 34 | 1016.7 |
| 20260503193027 | 62 | 321 | 1.7 | 1.7 | 0.00 | 0.00 | 0.00 | 35 | 1016.4 |
| 20260503192523 | 63 | 62 | 2.6 | 3.5 | 0.00 | 0.00 | 0.00 | 35 | 1016.7 |
| 20260503192020 | 63 | 308 | 0.0 | 0.9 | 0.00 | 0.00 | 0.00 | 35 | 1016.6 |
| 20260503191517 | 62 | 319 | 1.7 | 2.6 | 0.00 | 0.00 | 0.00 | 35 | 1016.7 |
| 20260503191013 | 62 | 307 | 0.0 | 0.9 | 0.00 | 0.00 | 0.00 | 35 | 1016.8 |
| 20260503190510 | 62 | 150 | 2.6 | 5.2 | 0.00 | 0.00 | 0.00 | 33 | 1016.7 |
| 20260503190008 | 62 | 15 | 2.6 | 3.5 | 0.00 | 0.00 | 0.00 | 36 | 1016.9 |
| 20260503185504 | 63 | 229 | 1.7 | 1.7 | 0.00 | 0.00 | 0.00 | 36 | 1016.8 |
| 20260503185003 | 62 | 322 | 0.9 | 0.9 | 0.00 | 0.00 | 0.00 | 36 | 1017.1 |
| 20260503184500 | 62 | 49 | 0.9 | 0.9 | 0.00 | 0.00 | 0.00 | 36 | 1017.0 |
| 20260503183956 | 63 | 358 | 1.7 | 1.7 | 0.00 | 0.00 | 0.00 | 36 | 1017.1 |
| 20260503183453 | 62 | 21 | 0.9 | 0.9 | 0.00 | 0.00 | 0.00 | 34 | 1017.1 |
| 20260503182950 | 62 | 328 | 1.7 | 1.7 | 0.00 | 0.00 | 0.00 | 34 | 1017.1 |
| 20260503182449 | 62 | 5 | 2.6 | 3.5 | 0.00 | 0.00 | 0.00 | 36 | 1017.1 |
| 20260503181946 | 62 | 265 | 0.9 | 2.6 | 0.00 | 0.00 | 0.00 | 38 | 1017.1 |
| 20260503181443 | 61 | 355 | 1.7 | 1.7 | 0.00 | 0.00 | 0.00 | 38 | 1017.3 |
| 20260503180939 | 61 | 344 | 1.7 | 1.7 | 0.00 | 0.00 | 0.00 | 35 | 1017.3 |
| 20260503180437 | 62 | 336 | 0.0 | 0.0 | 0.00 | 0.00 | 0.00 | 37 | 1017.4 |
| 20260503175934 | 61 | 358 | 1.7 | 1.7 | 0.00 | 0.00 | 0.00 | 36 | 1017.4 |
| 20260503175432 | 60 | 334 | 0.9 | 1.7 | 0.00 | 0.00 | 0.00 | 38 | 1017.4 |
| 20260503174927 | 60 | 1 | 2.6 | 3.5 | 0.00 | 0.00 | 0.00 | 38 | 1017.4 |
| 20260503174426 | 60 | 10 | 1.7 | 3.5 | 0.00 | 0.00 | 0.00 | 37 | 1017.6 |
| 20260503173926 | 60 | 56 | 1.7 | 2.6 | 0.00 | 0.00 | 0.00 | 37 | 1017.6 |
| 20260503173422 | 61 | 359 | 2.6 | 3.5 | 0.00 | 0.00 | 0.00 | 40 | 1017.4 |
| 20260503172919 | 59 | 358 | 0.9 | 0.9 | 0.00 | 0.00 | 0.00 | 36 | 1017.6 |
| 20260503172417 | 60 | 16 | 1.7 | 2.6 | 0.00 | 0.00 | 0.00 | 35 | 1017.6 |
| 20260503171913 | 60 | 299 | 0.9 | 1.7 | 0.00 | 0.00 | 0.00 | 39 | 1017.5 |
| 20260503171410 | 60 | 320 | 2.6 | 2.6 | 0.00 | 0.00 | 0.00 | 38 | 1017.7 |
| 20260503170907 | 59 | 24 | 1.7 | 1.7 | 0.00 | 0.00 | 0.00 | 39 | 1017.8 |
| 20260503170403 | 60 | 340 | 1.7 | 1.7 | 0.00 | 0.00 | 0.00 | 38 | 1017.9 |
| 20260503150755 | 55 | 351 | 0.9 | 1.7 | 0.00 | 0.00 | 0.00 | 37 | 1018.2 |
| 20260503150251 | 56 | 15 | 0.9 | 1.7 | 0.00 | 0.00 | 0.00 | 43 | 1018.2 |
| 20260503140216 | 54 | 35 | 1.7 | 2.6 | 0.00 | 0.00 | 0.00 | 44 | 1017.9 |
| 20260503131145 | 51 | 13 | 0.9 | 0.9 | 0.00 | 0.00 | 0.00 | 54 | 1018.0 |
| 20260503130643 | 51 | 355 | 0.9 | 1.7 | 0.00 | 0.00 | 0.00 | 54 | 1018.1 |
| 20260503130140 | 50 | 326 | 2.6 | 3.5 | 0.00 | 0.00 | 0.00 | 53 | 1018.0 |
| 20260503120106 | 48 | 349 | 1.7 | 2.6 | 0.00 | 0.00 | 0.00 | 63 | 1017.3 |
| 20260503110533 | 48 | 105 | 1.7 | 1.7 | 0.00 | 0.00 | 0.00 | 64 | 1017.0 |
| 20260503090420 | 49 | 325 | 0.9 | 0.9 | 0.00 | 0.00 | 0.00 | 65 | 1014.8 |
| 20260503081346 | 50 | 332 | 1.7 | 1.7 | 0.00 | 0.00 | 0.00 | 68 | 1014.2 |
| 20260503080843 | 50 | 332 | 0.0 | 0.0 | 0.00 | 0.00 | 0.00 | 69 | 1014.1 |
| 20260503080340 | 50 | 328 | 0.9 | 0.9 | 0.00 | 0.00 | 0.00 | 68 | 1014.1 |
| 20260503072817 | 51 | 315 | 0.9 | 0.9 | 0.00 | 0.00 | 0.00 | 62 | 1013.8 |
| 20260503072314 | 51 | 331 | 0.9 | 1.7 | 0.00 | 0.00 | 0.00 | 62 | 1013.8 |
| 20260503071809 | 51 | 351 | 0.0 | 0.9 | 0.00 | 0.00 | 0.00 | 63 | 1013.7 |
| 20260503071307 | 51 | 325 | 0.0 | 0.0 | 0.00 | 0.00 | 0.00 | 63 | 1013.7 |
| 20260503070803 | 51 | 353 | 0.9 | 1.7 | 0.00 | 0.00 | 0.00 | 64 | 1013.4 |
| 20260503070302 | 51 | 335 | 0.9 | 0.9 | 0.00 | 0.00 | 0.00 | 64 | 1013.5 |
| 20260503060232 | 50 | 332 | 0.0 | 0.0 | 0.00 | 0.00 | 0.00 | 76 | 1013.1 |
| 20260503054719 | 49 | 332 | 0.9 | 0.9 | 0.00 | 0.00 | 0.00 | 77 | 1013.1 |
| 20260503054216 | 49 | 332 | 0.9 | 0.9 | 0.00 | 0.00 | 0.00 | 78 | 1013.1 |
| 20260503053714 | 49 | 332 | 0.9 | 0.9 | 0.00 | 0.00 | 0.00 | 78 | 1013.2 |
| 20260503053213 | 49 | 335 | 0.0 | 0.0 | 0.00 | 0.00 | 0.00 | 76 | 1013.3 |
| 20260503052708 | 49 | 353 | 0.9 | 1.7 | 0.00 | 0.00 | 0.00 | 75 | 1013.4 |
| 20260503052205 | 49 | 331 | 0.9 | 0.9 | 0.00 | 0.00 | 0.00 | 75 | 1013.5 |